{"data":{"norad_id":67573,"epoch":"2026-05-25T02:24:07.058016Z","epoch_age_seconds":73360,"freshness":"FRESH","line1":"1 67573U 26016N   26145.10008169  .00015619  00000+0  48495-3 0  9990","line2":"2 67573  97.2858 205.4223 0001211  88.5664 271.5718 15.33455737 18574","mean_motion":15.33455737,"eccentricity":0.0001211,"inclination_deg":97.2858,"raan_deg":205.4223,"arg_perigee_deg":88.5664,"mean_anomaly_deg":271.5718,"bstar":0.00048495,"rev_number":1857,"period_min":93.905547141332,"perigee_km":464.68246310613,"apogee_km":466.33999470717,"semimajor_km":6843.6482289067,"source":"CELESTRAK","updated_at":"2026-05-25T13:38:21.615579Z"}}